Wind_Speed
11 11 13 14 13 13 13 13 14 14 15 16 17 17 17 17 17 17 17 18 18 18 19 19 20 20 19 17 14 8 7 11 17 19 20 19 15 18 20 20 20 19 19 18 17 16 15 16 17 17 11 4 3 3 4 6 6 6 6 8 10 12 12 8 9 10 8 6 4 9 13 11 9 8 10 11 12 12 12 12 13 16 18 20 19 13 8 8
11 10 12 13 12 13 13 13 13 14 15 16 17 17 17 17 17 17 17 18 18 19 18 18 20 20 19 16 13 7 5 9 17 21 20 17 17 19 20 19 19 18 18 17 16 16 15 15 17 16 11 4 3 3 3 4 7 9 6 8 12 11 8 5 5 6 6 9 5 7 12 11 11 9 7 8 11 11 11 11 11 14 16 20 22 17 11 9
11 10 13 14 13 13 13 13 13 14 14 15 15 16 16 16 16 16 17 17 18 18 18 18 20 21 20 16 13 6 3 7 18 23 20 18 17 17 17 18 18 18 17 15 14 13 11 12 14 13 10 6 2 3 3 3 6 11 9 9 11 8 8 5 4 4 6 8 8 8 9 9 10 9 6 9 11 8 10 10 9 12 14 18 21 20 16 11
12 13 13 13 13 13 13 13 13 13 13 13 14 14 15 15 16 16 16 17 17 18 17 18 20 20 19 16 15 9 3 4 16 21 19 17 16 16 17 18 19 20 19 16 13 11 10 10 10 9 8 5 1 3 6 6 4 8 10 11 8 4 7 6 7 9 12 12 10 11 8 8 7 8 8 9 10 8 10 10 8 8 10 14 18 19 19 16
13 12 12 12 13 13 13 12 12 12 12 13 13 13 14 14 15 15 15 16 17 16 16 18 19 18 17 16 18 14 4 3 13 20 19 17 17 17 18 18 20 20 20 18 13 11 10 9 7 6 4 4 2 3 6 8 6 7 12 16 12 9 7 8 12 12 14 14 12 11 9 7 7 9 12 12 12 9 8 8 7 7 6 9 12 15 18 19
12 12 12 12 12 13 13 12 13 13 12 12 12 12 13 13 14 14 14 15 16 16 16 18 18 16 16 15 18 20 11 3 15 20 19 18 17 18 19 19 19 19 18 18 14 10 9 8 7 5 3 3 4 5 5 8 8 8 13 17 17 14 10 11 15 16 16 15 12 10 12 14 13 11 11 13 18 15 11 10 10 9 7 5 7 10 14 17
12 12 12 11 12 13 13 13 14 13 13 12 12 12 12 12 13 13 14 14 14 14 16 17 16 15 17 15 16 23 20 10 17 20 19 20 19 20 20 20 20 18 17 17 16 12 9 7 7 6 5 3 5 6 6 9 12 12 12 13 15 15 13 12 14 17 18 17 15 14 15 16 14 13 10 13 18 17 17 18 17 13 10 8 8 10 11 14
11 11 11 12 13 14 14 14 15 14 14 13 13 12 12 12 11 12 12 13 13 13 14 15 14 14 18 19 15 20 21 15 18 20 21 22 21 21 20 19 19 17 15 15 15 13 10 7 5 6 5 4 5 6 8 9 11 14 13 14 16 16 17 15 14 17 20 20 18 16 17 16 15 15 16 20 18 16 17 19 21 20 16 14 14 14 13 12
11 11 11 12 13 15 15 15 16 16 15 15 14 13 12 11 10 11 11 11 11 12 14 15 13 13 19 23 17 14 16 16 18 21 23 24 24 23 20 18 16 15 12 11 12 11 8 5 3 4 4 6 7 8 9 8 7 9 12 15 16 17 19 17 16 16 18 21 18 17 19 17 15 14 18 23 22 20 20 19 21 23 22 19 18 17 16 14
12 12 12 12 13 15 16 16 18 18 17 17 15 13 11 10 10 10 9 9 10 12 13 15 13 11 19 25 19 12 14 17 18 21 23 25 25 24 21 18 15 13 10 9 9 9 6 4 4 4 5 7 9 9 10 10 10 12 16 18 18 21 21 19 18 16 15 17 17 18 18 20 19 12 14 18 16 17 20 22 23 24 24 22 21 20 18 17
12 12 12 12 14 16 16 17 19 19 19 18 16 13 12 10 9 8 8 8 9 11 13 15 12 9 16 25 20 12 16 18 19 21 23 24 25 23 22 19 16 13 11 9 8 7 6 5 5 4 4 4 6 9 11 11 11 14 17 18 18 20 22 22 21 18 15 12 14 16 17 21 18 16 21 17 12 12 14 17 21 25 26 22 22 23 21 19
11 11 11 12 14 16 16 17 20 20 20 19 16 14 12 9 8 8 8 8 8 11 14 16 11 8 14 21 20 16 17 17 18 22 23 24 23 21 20 18 15 12 12 11 7 5 5 5 4 5 5 5 6 7 8 9 11 13 13 13 15 16 18 20 20 19 14 11 11 11 14 17 17 24 29 18 14 16 16 17 18 22 26 23 22 24 26 25
10 10 11 12 13 16 16 17 20 21 20 19 16 14 10 9 8 8 7 7 8 11 16 16 9 10 12 13 17 19 17 16 19 22 24 26 24 21 19 17 13 10 11 10 8 6 4 5 5 6 7 7 7 7 10 14 13 13 11 9 10 12 12 11 12 16 16 13 10 7 11 14 18 29 30 21 20 17 18 22 20 20 25 26 23 24 30 30
10 10 11 13 13 15 17 18 20 21 20 18 15 11 10 9 9 9 8 8 8 12 19 15 9 12 12 9 16 21 18 18 20 24 28 29 28 25 21 15 11 9 9 8 8 7 5 5 4 5 7 8 8 9 11 13 11 9 10 8 6 8 8 4 4 10 13 14 16 10 10 14 15 20 21 20 22 18 22 28 25 21 22 26 26 24 27 28
10 10 11 13 13 15 17 18 20 20 19 17 12 10 10 10 10 10 9 8 8 12 21 14 8 11 12 8 16 20 20 22 24 27 30 30 30 27 22 17 12 8 8 8 7 8 7 5 3 5 7 8 8 7 8 7 7 6 7 7 6 7 8 7 8 9 10 11 20 17 10 12 13 15 17 16 13 13 20 25 26 25 21 23 26 25 25 25
10 11 11 12 12 14 16 18 19 19 18 15 10 11 12 13 13 12 10 8 7 10 21 16 6 8 11 9 16 21 22 24 25 28 29 29 28 24 20 19 16 9 7 7 5 5 5 4 4 5 6 6 5 6 6 6 6 5 6 7 8 8 8 9 8 10 15 10 17 19 11 10 9 9 13 15 14 16 19 20 22 24 21 21 24 27 27 28
10 10 10 11 12 13 15 17 18 19 17 13 10 11 14 16 17 15 12 9 7 8 18 21 5 5 8 15 21 23 23 22 25 29 31 29 26 20 18 20 18 11 5 5 8 7 3 2 3 3 4 5 4 5 5 6 7 5 6 7 8 9 9 10 7 5 12 12 14 18 15 14 11 8 10 12 14 16 20 22 21 23 23 21 22 25 30 32
10 10 9 9 11 12 15 16 18 18 16 12 9 11 14 18 20 19 15 12 10 6 11 22 14 5 3 17 22 22 20 21 26 30 32 31 24 17 17 20 17 14 7 3 9 10 4 3 3 3 3 4 4 4 6 8 8 7 7 6 7 7 7 9 8 6 9 11 13 15 15 17 16 14 15 15 14 13 15 17 18 20 21 20 20 21 26 33
10 10 9 9 10 11 14 15 17 17 15 13 8 9 11 14 18 21 21 20 17 9 4 15 17 5 4 16 23 21 16 19 26 31 33 31 24 16 18 19 15 14 9 3 9 10 6 4 4 4 5 6 6 7 10 12 12 12 11 9 8 7 8 10 9 8 11 12 13 14 14 16 15 14 14 15 17 18 18 17 16 18 18 18 18 18 20 28
12 11 9 9 9 10 12 14 16 15 15 14 7 6 6 5 8 12 19 24 21 13 7 10 14 10 9 15 23 22 14 18 26 31 33 32 25 16 18 19 10 10 11 7 9 7 5 5 4 6 9 10 11 11 13 15 15 14 12 10 9 8 9 11 9 9 8 8 10 13 15 17 15 14 13 13 15 17 20 20 19 19 19 19 18 19 19 23
12 12 10 10 9 8 11 12 14 14 16 15 6 6 8 6 4 3 10 17 17 14 12 13 14 16 16 15 22 22 15 18 26 32 34 32 26 14 15 18 8 7 12 11 9 3 4 6 6 9 11 12 13 13 14 14 14 12 11 9 9 8 9 11 11 9 5 4 10 12 14 16 15 13 12 13 13 14 17 19 19 19 20 21 20 20 20 22
12 12 11 11 8 7 9 11 12 14 13 11 8 11 14 11 7 4 4 7 12 14 13 14 17 22 21 17 22 21 15 16 23 32 36 33 28 16 13 15 9 8 11 11 9 5 5 5 8 11 10 11 12 12 12 13 12 10 8 8 7 4 6 9 8 7 3 4 8 10 10 12 13 11 9 12 12 13 17 18 20 20 20 20 20 20 20 21
12 12 11 9 7 7 8 9 11 13 12 11 12 15 14 10 7 6 5 4 7 13 13 13 17 24 24 19 21 18 12 12 16 28 36 34 26 16 12 12 9 8 10 11 9 7 6 7 12 13 10 11 12 10 8 8 8 8 6 7 5 3 4 6 3 3 5 5 7 8 8 9 11 10 8 11 12 13 16 19 20 20 22 22 19 18 18 18
12 12 10 8 7 7 8 9 11 12 13 13 14 14 11 9 7 5 4 3 3 9 12 12 14 22 24 19 21 15 9 14 16 23 33 33 24 13 9 10 9 7 9 13 11 7 6 9 13 13 11 11 10 7 6 7 5 6 7 6 2 2 4 8 6 5 6 5 6 6 7 8 10 11 9 8 9 10 12 16 17 17 19 20 19 18 19 19
12 12 10 8 7 7 7 8 11 11 12 12 13 12 10 8 6 4 3 2 1 7 11 10 10 18 23 20 21 11 3 13 19 22 28 31 23 10 6 8 6 7 10 14 11 4 5 9 10 13 13 8 5 5 4 6 5 4 6 5 2 3 8 11 9 5 4 5 6 4 6 5 3 5 5 3 5 7 8 10 12 14 15 17 18 16 13 13
12 11 10 9 8 8 6 7 11 10 9 11 12 11 9 8 6 3 2 1 1 6 9 10 8 14 22 22 21 8 2 9 16 21 26 27 21 8 5 8 4 4 9 10 6 1 4 9 9 10 13 10 5 4 1 5 5 2 2 4 4 5 8 10 9 5 4 3 2 3 6 3 1 1 2 4 5 5 5 7 8 10 10 9 10 13 19 22
11 11 10 9 9 8 7 7 10 8 8 9 10 10 8 9 6 2 0 1 3 5 7 9 7 12 19 19 20 8 1 11 13 18 26 25 21 9 4 9 5 4 7 5 3 2 5 11 10 9 10 9 7 6 3 3 5 2 1 4 5 6 8 7 6 6 4 1 1 3 5 4 4 3 5 5 5 3 2 2 6 11 15 19 22 25 28 29
10 10 9 9 8 8 8 8 9 8 9 9 9 10 9 8 4 1 1 2 4 6 4 7 6 12 20 17 21 14 3 11 11 14 26 26 23 10 2 8 7 8 8 3 5 6 4 9 12 12 10 7 7 9 9 6 4 3 4 3 5 5 6 5 4 5 4 2 3 4 4 4 3 2 3 3 4 5 9 13 16 20 24 25 26 26 26 27
10 9 9 9 8 9 8 8 9 9 9 9 9 10 9 7 2 1 1 1 3 5 4 9 8 15 24 14 17 19 10 11 11 14 24 26 26 15 2 5 9 8 5 2 3 6 5 6 8 9 8 8 9 10 8 5 3 4 5 5 6 3 3 3 2 2 2 3 1 2 4 4 1 2 2 2 5 9 12 15 16 20 24 24 24 25 24 26
9 8 8 9 8 9 8 8 9 8 8 8 8 9 8 6 1 1 3 1 2 5 5 9 8 13 22 11 10 19 11 9 14 17 21 21 25 22 3 6 9 5 2 2 3 8 10 6 3 3 5 9 11 8 4 3 2 4 5 4 5 3 1 2 1 1 2 2 2 1 4 5 1 3 6 6 8 10 11 12 14 19 23 24 23 24 24 25
8 7 7 7 7 7 7 7 8 7 7 8 8 9 6 2 1 3 3 1 2 5 5 6 8 11 15 7 5 14 9 7 14 15 14 12 15 19 10 4 8 5 2 5 5 11 11 2 3 3 3 12 13 4 1 3 4 3 3 3 3 2 2 1 1 1 0 3 4 3 4 6 3 5 9 10 11 14 13 13 14 17 20 22 22 23 24 25
8 7 6 6 6 6 7 6 7 7 8 9 9 8 2 0 3 2 1 4 2 4 4 3 8 10 8 3 4 12 8 5 13 11 7 8 7 13 13 9 10 6 6 9 8 11 7 1 8 6 2 13 15 5 3 2 3 5 4 3 3 1 0 1 1 1 1 3 5 4 2 4 5 8 10 11 13 15 15 15 15 17 19 22 22 22 23 25
7 6 5 6 6 7 7 6 8 8 8 10 8 4 2 2 3 1 2 3 1 2 4 4 8 9 6 4 6 11 5 2 12 13 7 7 6 10 13 12 12 7 5 8 8 10 5 0 9 10 5 14 15 7 6 6 6 9 7 5 4 2 3 4 3 2 1 3 5 3 1 3 7 8 9 12 13 14 16 17 17 18 20 21 22 24 25 26
6 5 5 7 7 7 8 7 9 8 8 9 5 1 4 3 1 0 2 2 1 2 4 5 7 5 3 4 5 8 4 3 10 12 7 6 6 7 10 12 14 9 5 6 5 7 6 2 7 11 8 13 13 6 5 7 7 6 5 4 4 3 3 3 3 4 3 2 3 2 1 2 5 4 5 8 12 15 17 17 18 20 21 21 24 27 28 28
5 5 5 6 8 7 8 8 8 8 8 7 3 2 4 2 1 0 1 2 1 2 2 2 4 3 2 3 3 5 3 2 9 9 4 5 5 7 8 9 13 11 6 6 5 5 6 4 4 9 10 11 11 7 7 7 4 3 4 2 3 4 3 3 2 2 4 1 2 2 2 3 5 6 3 6 11 16 18 20 23 24 23 23 26 28 28 27
4 5 5 6 7 7 7 8 6 7 8 4 3 3 2 0 2 3 0 2 0 3 4 1 2 2 3 2 3 6 3 1 8 7 3 4 4 6 7 6 10 12 8 6 5 4 5 6 6 11 11 10 12 9 7 7 3 3 4 4 5 4 3 4 2 3 4 0 2 1 4 4 4 5 6 10 13 17 20 22 24 25 25 26 27 27 27 27
4 4 5 6 6 7 6 6 6 6 6 3 4 3 1 0 2 4 1 1 1 2 3 1 3 2 3 2 3 8 6 2 6 6 4 3 2 4 5 4 9 12 8 4 3 3 4 8 6 7 10 13 17 10 4 6 7 3 5 6 7 4 3 3 3 2 3 2 2 1 3 4 5 2 7 14 16 17 17 19 22 25 27 27 27 27 26 26
3 3 5 6 6 7 6 6 5 5 5 5 5 3 1 1 3 4 2 1 1 1 2 2 2 1 1 2 3 9 9 5 5 6 4 2 2 4 4 3 7 11 11 6 3 2 4 7 3 3 8 13 15 8 2 6 9 3 1 6 4 1 2 4 3 2 4 3 2 2 1 1 3 3 7 11 14 15 15 16 19 23 25 25 25 24 24 24
3 3 5 8 6 6 6 5 4 2 4 4 3 2 1 2 2 3 2 0 1 1 1 1 1 0 1 2 4 6 6 5 5 5 2 2 2 3 4 3 5 9 12 7 4 3 4 4 1 3 10 11 7 5 3 6 7 2 1 4 4 3 3 4 3 2 3 3 3 4 3 4 6 5 7 11 12 13 14 13 14 19 23 23 23 23 22 23
2 2 5 7 6 6 5 4 5 4 4 3 2 1 1 2 2 2 1 1 1 1 0 1 1 1 1 2 3 3 4 5 5 3 1 1 3 2 5 5 6 10 12 6 2 2 2 2 4 6 11 8 1 5 5 5 6 5 5 7 7 4 1 1 2 2 3 4 3 3 2 4 5 4 8 12 11 12 14 12 11 16 19 19 21 21 20 21
3 2 4 6 5 6 4 5 8 6 3 2 2 1 1 1 1 2 2 1 1 0 0 0 1 1 2 2 2 2 4 5 4 3 2 1 0 1 4 6 8 10 11 6 2 3 2 2 5 8 8 5 2 3 3 4 5 6 6 6 6 6 3 2 2 3 2 3 3 4 4 2 4 4 8 10 10 12 14 14 13 16 18 18 19 19 18 20
4 2 5 7 5 4 4 5 6 4 2 2 2 1 0 0 1 2 2 1 1 0 0 0 1 1 1 1 1 2 3 4 3 2 2 2 2 2 2 8 12 10 7 4 2 3 3 3 5 7 6 7 6 3 2 2 3 4 6 5 5 5 4 3 3 3 3 2 1 3 3 1 4 3 8 10 11 13 15 17 16 16 17 17 17 17 17 19
6 4 6 8 4 2 4 4 3 2 2 2 2 2 1 1 1 2 2 1 1 0 0 1 1 0 1 0 1 1 2 3 3 2 2 2 2 2 1 11 18 12 5 2 2 3 4 2 3 7 6 4 2 2 3 0 1 2 4 5 5 4 4 3 4 4 3 3 2 2 3 2 6 2 7 12 15 17 17 17 17 15 15 15 15 15 16 19
7 7 9 11 5 3 3 2 1 1 1 1 2 2 2 1 1 1 1 1 1 0 1 1 0 1 0 1 1 1 2 2 2 2 2 1 2 1 2 13 18 9 3 3 3 4 3 1 3 6 5 2 2 3 1 1 2 4 3 2 4 5 4 3 2 2 2 3 2 3 4 2 6 1 10 15 17 17 16 15 15 15 14 14 13 13 13 17
4 5 9 12 9 6 5 4 3 3 1 1 2 2 1 2 2 1 0 0 1 1 0 1 0 1 0 1 2 1 3 2 1 1 1 2 3 1 4 15 15 6 3 6 6 4 2 2 3 3 4 4 3 3 3 4 5 6 4 4 5 4 4 4 2 2 3 1 1 5 6 1 1 9 13 13 14 14 13 13 14 15 15 14 13 12 13 15
2 2 4 9 11 12 11 7 4 4 2 2 2 1 0 2 1 0 1 1 1 1 1 1 1 1 0 1 2 2 3 3 2 1 1 4 3 1 8 15 10 5 5 9 10 4 1 2 4 5 5 6 7 8 7 7 8 9 10 12 10 6 5 4 3 3 3 3 5 8 9 10 12 13 11 10 11 11 11 13 14 15 16 15 13 12 12 14
2 1 1 2 6 10 10 7 5 4 2 1 2 3 2 2 1 0 2 2 0 2 1 1 0 2 1 1 0 1 2 3 2 1 3 5 3 4 11 9 4 5 6 9 12 6 1 3 5 7 10 11 11 13 12 10 11 13 14 15 13 10 6 5 6 6 3 4 6 7 7 11 13 12 9 9 9 9 10 13 14 15 17 17 15 13 12 13
2 3 3 2 1 2 3 4 5 5 3 1 1 2 2 3 2 2 3 2 1 2 2 1 2 2 1 2 1 1 1 2 2 1 2 3 2 5 7 1 3 6 7 7 9 6 1 4 2 3 9 12 12 14 13 12 13 12 14 15 14 13 10 9 11 11 8 7 9 7 8 12 15 13 8 5 5 7 11 13 13 16 19 19 16 14 12 13
4 4 4 4 3 3 4 4 5 5 3 2 1 2 2 3 4 2 2 2 1 1 2 2 4 4 3 3 2 1 1 2 3 2 2 1 2 5 5 0 3 4 6 5 5 4 1 3 0 2 8 12 14 13 12 11 12 13 15 15 14 14 13 13 13 12 12 14 15 15 17 18 16 11 4 2 3 6 9 12 14 17 21 20 17 14 12 13
4 3 4 5 5 5 6 5 5 4 2 1 0 2 3 4 4 3 3 4 3 2 3 4 4 6 5 4 4 4 4 5 5 5 3 2 2 2 2 2 1 2 5 4 2 3 3 1 2 2 5 9 10 9 7 9 11 14 17 17 14 13 13 12 12 11 10 12 15 16 17 16 9 2 2 3 4 6 9 12 14 17 21 21 17 13 12 15
2 2 4 5 3 4 5 4 3 3 2 2 3 3 3 5 6 4 3 6 6 4 5 5 6 6 4 5 7 9 9 9 10 12 10 8 7 5 4 3 2 3 5 4 1 2 2 1 1 2 4 5 4 5 8 11 12 14 17 16 11 10 8 7 7 7 7 8 11 12 12 10 3 3 3 5 6 8 10 12 14 17 21 20 16 13 14 18
2 1 3 3 1 3 4 3 3 2 2 4 6 6 5 5 6 5 3 5 8 8 6 7 8 5 3 6 9 11 11 10 13 15 15 15 15 13 13 12 10 8 6 4 3 2 1 2 1 1 4 4 2 6 10 11 9 7 6 6 5 6 5 5 6 7 8 8 9 9 7 4 3 3 5 6 7 10 12 13 15 18 20 17 13 12 15 21
Wind_Direction
31 24 21 26 24 23 34 42 41 41 42 41 38 36 32 30 27 24 22 20 17 13 10 9 12 18 16 17 26 50 76 44 29 25 26 23 357 343 341 337 337 335 336 337 341 346 349 347 349 3 3 317 278 289 260 242 216 208 214 223 233 233 237 241 223 222 238 239 177 160 177 204 232 218 219 234 238 237 244 243 238 238 233 233 236 239 255 236
25 20 22 28 33 36 44 44 40 41 42 40 36 33 30 28 25 20 18 17 14 10 7 6 9 12 11 13 21 38 89 44 24 19 12 358 342 339 340 340 341 340 338 337 342 350 350 346 350 360 4 349 269 269 263 240 217 216 218 227 234 236 243 265 261 242 249 257 241 182 188 206 229 234 217 227 237 223 233 240 228 235 235 234 235 232 242 232
21 25 28 33 41 43 46 46 44 45 41 38 34 29 28 25 22 17 14 14 11 7 3 6 9 7 8 14 19 24 123 48 18 8 357 347 345 344 344 349 350 350 350 347 343 345 346 340 345 354 355 349 277 262 259 235 223 225 227 236 236 249 252 261 340 348 339 308 277 240 207 208 227 226 205 224 236 212 225 235 221 229 230 234 236 231 235 232
22 26 30 38 44 43 45 48 46 42 38 35 30 25 23 20 20 16 12 11 8 4 360 7 10 7 15 26 25 20 166 86 17 0 352 351 353 349 349 353 352 352 355 353 346 337 334 332 337 350 350 346 317 274 254 232 235 229 226 235 242 302 273 275 352 3 3 357 325 294 248 225 235 222 212 223 228 214 224 232 238 245 236 240 242 235 234 232
29 31 37 44 44 41 41 43 43 38 33 30 26 22 18 15 15 13 10 8 5 1 0 9 13 15 27 36 32 33 139 148 4 353 352 351 346 342 343 346 345 347 349 350 352 338 328 329 331 341 344 342 318 275 248 238 254 255 246 250 265 299 294 312 340 346 349 348 341 324 286 289 299 248 233 231 234 232 222 220 245 267 261 255 248 240 236 233
32 38 41 43 45 43 39 39 38 33 28 23 21 17 13 10 9 9 9 6 3 359 2 11 20 29 35 37 34 39 72 63 352 348 345 341 333 331 330 329 331 334 338 341 348 345 337 335 325 323 326 327 297 278 271 257 253 256 256 259 271 287 298 316 322 324 331 327 325 322 305 311 307 276 253 242 243 248 250 253 263 267 260 268 259 245 243 238
31 36 33 36 46 44 37 35 33 28 24 20 17 13 7 5 2 3 5 3 1 359 6 16 29 40 37 34 29 37 52 32 353 348 342 342 335 328 322 319 321 322 323 329 339 349 348 335 319 319 309 293 286 277 283 277 262 257 262 270 281 293 298 308 313 311 314 309 303 305 303 302 291 288 285 263 255 254 260 266 266 264 258 263 267 259 255 249
27 32 33 36 41 40 34 32 30 26 23 20 16 10 4 2 356 359 4 1 0 3 13 23 34 45 36 31 34 39 39 13 356 358 359 359 353 343 332 322 321 322 323 326 335 346 352 345 330 324 298 285 301 288 286 286 267 257 263 275 285 292 290 292 293 295 298 295 297 297 289 286 286 298 291 272 267 262 260 261 260 261 261 260 264 264 258 251
22 29 34 37 38 36 30 28 29 25 22 21 16 10 1 357 354 1 6 3 6 12 23 27 32 44 36 32 43 47 25 6 5 9 12 10 6 3 354 340 330 327 331 334 338 343 352 358 340 331 307 294 291 284 283 280 264 261 273 281 286 288 288 289 283 280 282 283 291 292 283 282 289 303 288 268 263 261 258 257 256 259 261 259 259 261 256 250
17 27 28 32 37 33 26 27 28 22 20 18 14 9 359 356 359 8 13 12 17 24 30 24 24 44 36 33 46 44 16 12 12 11 14 11 6 8 6 359 347 340 338 341 343 342 345 336 304 299 296 283 269 269 271 265 272 288 295 295 290 287 286 284 280 276 275 277 279 278 280 282 285 289 269 259 257 253 254 254 253 255 257 257 256 255 254 252
14 23 24 26 35 33 26 27 25 20 17 14 12 6 360 2 9 22 28 25 30 36 31 18 22 50 37 37 46 35 15 15 11 10 11 9 5 4 6 2 352 345 339 343 347 334 328 318 299 282 278 284 276 270 261 262 282 297 304 303 293 288 284 275 271 269 269 271 267 269 277 277 276 263 248 248 254 251 257 257 248 248 249 252 253 252 253 254
13 21 25 25 33 32 26 26 23 19 15 12 9 4 7 18 30 44 40 35 45 44 26 14 27 54 40 41 42 28 19 16 10 9 7 5 5 1 359 354 346 338 331 336 338 320 312 309 290 258 268 305 300 273 270 294 302 298 299 299 296 293 283 272 264 257 252 253 257 267 274 265 250 248 250 249 255 257 262 264 255 250 250 250 249 249 253 256
11 20 26 22 29 31 24 24 21 17 13 10 6 9 26 42 52 54 44 52 63 45 20 15 46 62 50 47 32 23 25 20 10 8 5 3 3 1 357 346 332 324 324 323 317 313 307 300 275 253 274 289 282 274 294 305 297 287 284 287 298 294 284 277 261 245 238 237 232 236 257 252 240 246 253 253 252 255 261 264 262 256 257 258 255 253 255 256
8 18 22 16 24 27 20 19 19 15 11 10 11 28 51 57 60 54 54 72 70 42 18 18 75 69 59 53 19 17 23 22 16 9 5 2 359 360 6 1 339 325 326 316 304 304 298 300 279 259 269 261 267 290 297 291 282 281 283 282 280 278 280 283 261 240 233 220 204 212 252 251 248 251 252 249 244 245 255 260 261 258 253 257 261 256 251 251
6 13 15 13 17 20 16 14 15 13 10 13 26 53 65 63 65 60 65 76 71 44 23 25 104 76 62 50 11 12 19 20 18 12 6 2 358 358 7 12 2 344 335 327 305 293 290 297 273 262 276 265 265 285 287 276 272 271 273 275 255 265 281 274 265 245 239 215 196 206 250 254 255 258 249 244 239 240 253 258 260 259 248 246 251 248 247 251
2 8 11 9 9 13 13 10 11 12 11 19 46 72 74 69 66 62 70 72 74 50 28 30 106 87 61 34 9 15 21 20 16 12 7 4 360 357 2 6 6 359 343 347 344 317 290 276 262 262 270 268 263 267 279 281 269 245 242 264 263 271 286 285 279 230 229 224 196 207 239 258 254 250 244 244 247 247 253 258 260 262 255 243 242 242 247 254
354 1 7 4 0 6 8 6 9 10 13 28 63 85 80 72 65 61 66 65 70 61 37 33 52 143 54 19 10 9 12 18 15 10 8 6 4 2 1 2 11 22 23 37 37 26 358 298 278 268 256 257 275 277 275 268 261 250 240 254 258 263 278 287 295 233 234 236 211 213 231 252 254 255 262 257 254 246 245 254 259 262 262 253 247 244 246 250
349 350 2 1 353 358 1 1 5 8 16 34 72 98 90 77 68 62 62 64 64 66 43 32 35 144 26 360 358 358 7 18 14 11 8 6 8 10 5 5 17 32 42 58 30 24 12 333 289 283 272 252 261 255 251 260 273 281 268 265 259 256 276 285 286 319 312 274 238 225 231 247 254 259 265 260 259 255 246 252 258 262 266 262 257 251 247 250
348 344 353 353 345 350 353 356 3 8 18 36 70 112 106 86 71 62 57 59 59 60 39 22 32 78 313 339 350 356 12 21 14 12 9 6 10 13 10 11 18 27 33 22 9 16 3 324 286 289 288 273 273 265 264 273 282 284 275 272 268 262 274 280 276 290 308 292 258 243 244 253 257 259 260 254 254 259 260 260 261 263 268 270 266 260 254 254
351 346 348 350 346 347 349 355 2 6 21 34 59 128 120 88 67 57 49 53 59 63 61 33 35 33 342 340 356 1 13 23 17 12 9 8 10 10 10 13 14 23 29 7 354 13 360 329 314 315 307 302 299 289 282 279 280 281 274 265 261 262 269 277 282 270 265 276 267 254 255 260 261 262 262 261 255 256 262 263 262 261 262 267 268 266 263 261
357 355 356 359 355 349 353 356 3 11 24 30 49 110 86 64 65 49 39 51 58 59 56 41 33 22 6 356 1 4 7 15 17 13 9 9 12 13 6 11 15 15 15 356 341 335 330 335 336 328 317 309 301 297 291 277 269 267 265 263 254 253 274 285 285 267 231 237 267 262 261 263 262 266 266 264 259 253 260 263 264 264 261 263 263 266 268 268
360 359 359 1 2 1 0 1 10 20 26 27 51 82 78 74 81 86 71 67 54 50 48 38 30 19 13 7 4 7 7 4 9 12 9 9 16 19 3 10 21 4 0 355 347 332 335 345 334 324 316 305 292 294 291 270 252 242 249 260 256 273 305 302 285 264 240 225 259 268 270 269 266 268 266 265 263 255 257 260 263 267 266 265 263 265 268 269
0 359 359 359 12 14 7 13 18 23 27 32 51 67 73 68 68 82 102 113 52 41 38 32 28 17 13 8 2 9 18 9 360 4 8 8 11 16 7 10 9 351 356 1 353 340 341 336 325 314 302 299 290 287 279 263 248 230 243 256 257 2 338 303 322 325 305 266 264 280 278 275 271 269 262 260 263 258 256 256 257 262 266 269 269 269 272 272
6 3 5 7 21 20 16 26 23 24 31 35 49 60 62 50 45 63 76 129 73 31 27 28 24 16 11 3 359 5 27 25 8 1 8 7 2 6 11 6 358 352 357 353 344 335 323 309 316 312 298 299 292 280 249 248 260 232 246 256 237 24 289 280 303 317 303 263 249 273 272 270 266 262 259 259 264 261 258 258 256 257 263 271 274 272 274 276
15 13 19 23 30 27 27 33 26 30 33 35 46 50 52 39 30 59 61 133 107 11 14 20 17 12 8 2 1 2 44 33 19 7 8 8 2 356 355 2 2 351 349 344 336 329 319 305 316 321 318 328 308 283 240 241 264 231 239 251 250 294 278 281 291 287 264 223 205 225 255 267 253 246 261 289 288 277 270 269 266 261 261 269 275 284 298 309
23 25 30 34 36 31 33 32 26 30 30 33 39 36 38 23 17 74 74 150 70 5 1 4 7 6 4 3 2 1 142 23 19 17 12 10 7 353 337 359 6 347 342 331 318 250 295 303 313 330 338 360 355 302 209 209 248 271 208 213 233 266 271 286 291 259 229 216 155 187 235 250 33 337 4 350 319 306 287 274 276 279 286 301 321 0 24 28
26 30 34 37 36 32 38 35 25 28 29 30 30 25 21 10 17 98 104 89 37 356 347 356 5 0 358 6 14 27 186 344 0 20 16 12 9 358 342 4 356 337 340 306 323 26 299 309 327 343 345 3 3 329 324 246 246 324 44 199 230 256 265 291 287 245 245 324 121 199 228 251 283 333 23 360 332 346 349 344 5 11 21 31 34 37 40 42
23 31 34 34 35 33 36 33 26 29 30 25 20 15 4 2 24 142 144 103 1 339 343 349 345 354 358 13 30 42 53 351 356 9 16 22 15 355 289 9 348 314 331 317 348 360 313 319 335 338 344 2 351 323 319 300 255 335 360 252 245 265 274 298 278 249 264 260 203 180 196 240 270 12 22 353 350 15 37 46 43 38 39 42 41 42 42 44
19 28 29 27 31 29 28 27 25 28 26 19 11 3 351 353 15 169 69 127 326 338 347 351 346 349 355 8 31 27 27 19 7 357 14 28 25 17 246 340 344 306 309 249 307 337 306 305 324 332 350 354 329 314 316 312 282 328 332 262 246 272 297 301 277 248 221 226 234 124 176 225 276 42 359 2 14 16 37 49 48 44 43 42 40 38 37 39
15 23 23 26 26 22 22 21 20 21 16 9 2 354 347 345 302 156 42 29 338 351 333 360 2 343 351 2 24 14 10 10 359 358 13 21 23 25 355 285 330 302 263 209 259 323 313 291 308 335 342 330 315 306 305 287 270 294 298 275 261 260 285 316 306 239 165 142 45 32 201 212 189 60 45 48 37 32 48 53 46 44 41 39 38 35 34 36
11 17 20 27 27 20 21 18 13 11 7 2 354 351 350 347 23 103 60 322 323 355 340 4 3 347 360 15 5 357 350 348 355 0 9 5 16 24 18 331 336 319 348 13 347 335 331 336 4 329 336 340 327 305 245 230 230 268 286 296 293 250 215 202 188 245 139 83 31 339 216 201 178 63 51 52 50 47 51 49 43 43 41 39 36 34 34 34
10 14 19 26 28 21 20 17 11 5 0 358 351 350 352 158 32 81 336 320 326 4 0 349 348 348 349 342 356 351 334 337 357 359 357 351 16 31 33 26 358 351 10 3 347 340 339 25 351 337 24 2 350 346 4 304 299 355 359 319 318 325 336 68 79 351 62 70 20 354 202 170 96 61 51 52 50 48 51 51 48 45 43 40 36 32 32 32
12 14 16 22 24 19 14 12 9 4 356 354 348 350 59 97 48 96 272 337 22 357 343 317 333 345 331 330 4 349 323 350 358 353 346 348 20 42 43 35 13 6 357 345 343 350 349 185 2 4 4 0 2 6 1 343 339 358 1 345 352 10 13 26 31 7 38 50 24 13 231 123 84 59 42 48 47 46 51 50 47 46 44 41 36 34 32 30
20 20 14 18 22 17 14 9 6 4 354 350 342 4 60 73 69 188 265 303 247 303 328 318 320 335 6 10 360 343 344 64 7 352 344 357 25 36 35 31 20 10 339 341 355 357 342 297 13 15 342 342 358 7 334 301 302 337 335 333 13 21 6 7 2 352 351 6 25 20 298 42 91 93 35 39 43 43 47 45 43 44 42 40 37 34 31 28
27 27 17 18 20 16 14 8 4 4 355 350 1 53 68 93 225 184 272 259 252 309 307 341 330 327 40 6 340 352 359 25 3 355 357 18 30 25 22 24 17 11 356 355 356 347 328 284 347 352 316 324 349 346 326 308 291 329 326 314 13 7 327 317 327 318 312 331 36 41 72 59 98 117 56 21 34 36 35 35 36 35 34 35 35 32 28 24
31 37 28 19 18 18 14 9 8 9 1 359 48 57 75 140 217 165 137 272 127 334 299 342 13 357 13 334 322 0 1 308 353 352 13 26 25 27 26 29 22 19 18 5 354 357 336 292 320 339 329 347 357 335 330 353 332 297 342 0 339 317 269 305 319 244 272 33 82 60 101 112 145 128 43 22 27 26 25 28 28 27 28 30 29 26 23 21
36 50 36 21 21 22 18 17 19 14 8 32 79 77 114 252 200 184 342 329 167 339 318 4 35 16 354 319 326 353 344 323 356 359 5 1 17 36 23 33 35 23 10 349 356 37 336 294 305 348 345 350 348 322 279 8 0 339 9 352 310 268 211 310 333 301 319 23 97 89 121 151 170 143 20 21 24 19 19 23 24 25 26 25 23 20 19 19
48 69 36 23 26 24 22 27 23 21 35 60 84 96 169 199 198 215 294 321 176 20 38 58 20 8 331 311 334 347 341 343 3 360 351 345 30 47 28 17 28 18 360 329 315 10 326 298 272 54 355 339 340 329 262 8 19 62 7 328 317 348 16 352 354 347 345 348 9 36 49 65 83 62 24 28 27 19 17 19 23 24 23 21 18 16 17 18
46 83 33 20 23 22 18 17 11 45 71 69 100 125 179 218 222 227 266 209 189 331 56 97 349 222 151 306 319 335 338 344 349 341 346 7 4 52 65 8 347 8 5 345 315 327 325 311 267 22 348 324 324 3 4 1 18 91 276 355 11 358 347 8 7 329 335 335 343 8 18 49 65 64 53 48 38 28 24 24 27 23 19 18 15 13 15 18
42 93 32 18 19 16 14 22 38 64 70 66 125 137 153 202 200 179 148 119 182 284 337 141 174 181 197 266 298 332 330 323 324 317 318 352 336 36 69 22 344 356 357 339 300 325 323 300 282 318 334 319 349 47 11 352 11 19 23 24 15 358 316 345 15 18 352 333 333 338 356 81 82 63 59 56 47 39 32 29 31 23 18 16 14 14 16 19
60 98 20 16 20 13 23 55 52 56 74 89 105 100 113 158 139 124 114 110 146 211 309 305 176 174 223 260 289 328 317 308 299 287 280 232 331 17 53 31 359 348 344 333 337 358 345 296 288 305 328 332 20 44 339 326 9 28 38 32 14 15 8 320 10 54 2 325 331 319 315 89 102 64 56 56 52 48 39 32 29 22 18 13 10 14 18 19
65 84 4 8 11 16 55 66 45 43 88 96 94 105 108 115 83 67 68 87 95 97 100 245 188 182 235 271 319 326 315 301 272 257 273 232 249 294 29 24 2 342 331 328 341 351 330 294 293 300 305 304 308 351 39 323 345 41 56 48 26 17 12 345 341 2 343 315 316 296 300 134 137 78 53 58 54 49 43 34 27 20 16 11 8 12 15 15
63 58 13 7 12 90 90 77 48 38 62 77 104 116 87 53 83 73 50 44 29 346 144 173 199 262 198 217 324 311 307 292 249 258 294 258 279 285 8 7 355 344 334 341 336 331 320 288 300 303 297 294 298 93 89 264 263 34 42 41 31 19 9 336 317 332 315 280 283 262 273 206 175 155 38 47 41 38 38 31 23 17 13 9 7 8 9 9
71 56 33 25 37 119 106 84 108 96 46 38 62 80 83 82 86 82 67 40 36 8 214 172 214 333 328 352 327 234 303 309 224 283 317 285 332 332 358 355 353 348 349 357 333 322 324 318 315 313 315 351 114 136 139 259 305 337 337 1 14 8 351 320 297 303 275 278 293 257 264 181 158 304 3 23 23 22 26 23 17 11 6 5 3 2 3 4
76 56 42 39 51 89 98 97 121 126 131 65 70 70 78 98 96 88 150 100 61 61 268 182 250 318 349 16 12 2 337 331 269 346 359 311 306 268 336 345 350 347 337 355 343 309 297 321 316 322 333 333 326 323 326 324 320 317 302 300 323 335 321 309 294 259 261 286 235 239 259 281 316 321 344 8 9 4 8 11 10 5 358 358 355 353 357 359
78 44 31 39 52 72 84 87 93 114 139 160 136 131 139 138 137 228 184 167 113 121 88 94 202 264 169 49 359 352 338 324 328 356 310 296 296 299 329 337 349 347 347 13 11 347 253 291 272 254 260 267 287 303 314 323 309 295 295 299 303 304 290 284 276 250 251 283 265 250 262 279 289 303 330 356 355 350 353 357 359 356 351 351 350 346 348 354
66 48 8 35 51 64 73 67 61 90 132 191 161 154 157 154 152 224 181 185 199 155 114 46 184 221 215 185 237 303 304 313 334 316 277 280 259 288 313 324 5 8 13 28 16 7 279 296 276 252 256 259 275 291 296 301 291 283 290 293 292 295 282 249 242 245 266 301 274 247 254 272 282 298 323 348 348 340 344 348 349 347 344 344 344 341 340 348
70 108 102 104 79 68 74 67 69 87 93 58 99 149 156 164 176 175 169 172 173 173 181 238 200 197 182 154 168 282 305 309 306 225 259 285 288 311 321 37 97 29 37 44 25 32 265 282 291 268 272 271 277 283 286 289 284 278 280 278 280 285 275 254 250 247 243 253 258 265 282 283 286 296 316 353 349 332 337 340 339 341 341 340 339 335 335 345
101 117 109 107 124 144 135 121 112 109 100 73 107 181 183 184 188 181 150 146 154 206 216 229 204 187 168 153 171 245 245 261 291 271 221 250 302 314 323 113 129 52 39 36 34 44 276 264 333 304 286 282 279 279 280 279 277 277 274 270 273 276 270 264 263 255 243 246 258 273 282 282 282 292 315 359 334 323 328 334 338 340 338 335 333 331 333 342
116 130 140 125 115 132 141 138 135 134 126 87 200 210 207 206 200 181 168 181 182 171 198 221 195 176 180 185 194 228 224 222 262 268 226 218 277 267 281 285 188 65 16 13 37 20 340 329 52 348 287 282 281 282 279 275 281 285 281 277 273 270 267 260 256 253 245 249 260 266 273 278 279 308 6 339 326 324 326 333 338 337 333 329 328 330 335 340
127 121 144 135 118 144 159 154 153 160 169 181 190 181 190 217 213 190 192 211 209 184 190 204 176 159 188 210 212 237 246 240 252 260 255 256 261 243 224 242 255 301 332 332 296 328 326 286 28 12 295 283 292 302 295 292 291 284 279 279 264 245 248 243 233 229 226 250 269 264 265 277 298 51 359 327 330 329 330 335 335 330 327 324 322 328 336 339
177 151 161 155 140 179 180 168 165 181 200 190 182 177 193 210 195 182 205 223 217 216 209 189 170 162 200 220 229 247 254 252 258 265 268 265 260 254 248 250 260 271 281 288 282 277 248 258 306 343 286 282 309 312 308 308 299 275 270 285 241 199 210 230 231 233 234 256 278 274 271 293 350 352 320 318 330 327 326 331 328 323 320 316 315 322 332 335
Height
1569 1568 1567 1567 1566 1565 1564 1563 1562 1561 1561 1560 1560 1559 1558 1558 1557 1556 1555 1554 1553 1553 1552 1551 1551 1550 1549 1547 1546 1545 1544 1544 1543 1542 1541 1542 1543 1542 1540 1539 1538 1537 1536 1535 1534 1533 1532 1531 1529 1529 1529 1529 1529 1529 1529 1528 1529 1529 1526 1525 1518 1508 1503 1500 1501 1501 1499 1500 1501 1503 1504 1505 1505 1505 1506 1506 1507 1507 1506 1506 1506 1506 1505 1505 1506 1506 1507 1506
1569 1568 1567 1567 1566 1565 1564 1563 1562 1562 1561 1561 1560 1560 1559 1558 1557 1556 1556 1555 1554 1553 1552 1551 1551 1550 1549 1547 1546 1545 1544 1544 1543 1543 1543 1543 1543 1541 1540 1539 1537 1536 1535 1534 1533 1533 1532 1531 1529 1529 1529 1529 1528 1529 1529 1528 1528 1526 1522 1521 1511 1502 1502 1502 1502 1501 1501 1502 1501 1503 1503 1504 1504 1504 1505 1505 1504 1505 1505 1504 1505 1505 1504 1504 1504 1505 1506 1506
1569 1568 1567 1566 1566 1565 1564 1564 1563 1562 1562 1561 1561 1560 1559 1559 1558 1557 1556 1555 1555 1554 1553 1552 1551 1550 1549 1547 1546 1545 1544 1544 1543 1544 1544 1543 1542 1541 1540 1538 1537 1536 1535 1534 1533 1533 1532 1531 1530 1530 1530 1529 1529 1529 1528 1528 1527 1523 1521 1516 1505 1502 1504 1504 1505 1504 1504 1504 1503 1503 1503 1503 1503 1503 1504 1503 1502 1502 1502 1501 1502 1503 1502 1502 1502 1504 1505 1505
1569 1568 1567 1566 1566 1565 1565 1564 1563 1563 1562 1562 1561 1560 1560 1559 1558 1557 1556 1556 1555 1554 1553 1553 1552 1550 1549 1547 1545 1544 1543 1543 1545 1546 1545 1543 1542 1541 1540 1538 1537 1536 1535 1534 1533 1533 1532 1532 1531 1530 1530 1529 1529 1529 1528 1527 1525 1523 1518 1510 1503 1506 1507 1505 1506 1506 1506 1507 1506 1504 1503 1503 1503 1503 1502 1502 1501 1500 1499 1500 1500 1500 1501 1501 1501 1502 1503 1504
1569 1568 1567 1567 1566 1566 1565 1564 1564 1563 1562 1562 1561 1560 1560 1559 1558 1557 1557 1556 1555 1554 1553 1553 1552 1550 1549 1547 1546 1544 1542 1544 1547 1547 1545 1543 1542 1541 1540 1538 1537 1536 1535 1534 1533 1533 1532 1532 1531 1531 1530 1529 1529 1529 1527 1526 1526 1522 1514 1508 1507 1509 1509 1507 1507 1507 1508 1509 1509 1507 1504 1503 1503 1502 1501 1501 1499 1497 1497 1498 1499 1499 1500 1500 1500 1501 1502 1503
1569 1569 1568 1567 1566 1566 1565 1565 1564 1563 1562 1562 1561 1560 1559 1558 1558 1557 1557 1556 1555 1554 1554 1553 1552 1550 1549 1548 1547 1544 1543 1547 1549 1547 1545 1544 1542 1541 1539 1538 1537 1536 1535 1534 1533 1533 1532 1532 1532 1531 1530 1529 1529 1528 1527 1526 1526 1521 1513 1511 1511 1511 1511 1509 1509 1509 1509 1509 1509 1509 1506 1505 1504 1501 1500 1500 1497 1496 1497 1497 1497 1498 1498 1499 1499 1500 1500 1501
1570 1569 1568 1568 1567 1566 1565 1565 1564 1563 1562 1561 1560 1560 1559 1558 1557 1557 1556 1556 1555 1554 1554 1553 1552 1551 1550 1548 1547 1545 1546 1550 1550 1547 1545 1543 1541 1540 1538 1537 1536 1535 1534 1534 1533 1532 1532 1532 1532 1531 1530 1529 1529 1528 1527 1526 1526 1521 1514 1513 1513 1512 1512 1511 1512 1510 1510 1510 1509 1509 1507 1506 1505 1502 1500 1498 1496 1498 1497 1496 1497 1497 1497 1498 1498 1499 1499 1499
1570 1569 1568 1568 1567 1566 1565 1565 1564 1563 1562 1561 1560 1559 1558 1558 1557 1556 1556 1555 1555 1554 1554 1553 1552 1552 1550 1549 1547 1546 1548 1550 1549 1547 1545 1543 1541 1539 1537 1535 1535 1534 1533 1533 1532 1532 1531 1531 1531 1532 1530 1529 1528 1528 1527 1526 1524 1520 1516 1515 1514 1513 1512 1513 1513 1512 1511 1509 1509 1508 1506 1505 1505 1503 1498 1495 1496 1497 1496 1496 1497 1496 1496 1497 1497 1498 1498 1498
1570 1569 1568 1568 1567 1566 1565 1564 1563 1562 1562 1561 1560 1559 1558 1557 1556 1556 1555 1555 1554 1554 1554 1553 1552 1552 1550 1549 1547 1546 1550 1551 1549 1547 1545 1543 1540 1538 1536 1535 1534 1533 1533 1532 1532 1532 1531 1531 1532 1532 1530 1529 1529 1528 1527 1526 1521 1517 1516 1516 1514 1513 1512 1512 1511 1512 1511 1509 1509 1507 1504 1504 1505 1504 1495 1490 1493 1494 1494 1495 1495 1496 1495 1496 1496 1497 1497 1497
1570 1569 1569 1568 1567 1566 1565 1564 1563 1562 1561 1560 1559 1558 1557 1557 1556 1556 1555 1555 1554 1554 1553 1553 1552 1552 1550 1549 1547 1548 1552 1551 1548 1547 1545 1543 1540 1538 1536 1534 1534 1533 1532 1532 1532 1531 1531 1531 1531 1531 1531 1530 1529 1528 1527 1526 1521 1517 1518 1516 1515 1513 1511 1511 1510 1510 1510 1509 1509 1506 1503 1501 1503 1504 1492 1487 1491 1492 1492 1493 1494 1495 1494 1495 1495 1495 1496 1496
1571 1570 1569 1568 1567 1566 1565 1564 1563 1562 1561 1560 1559 1558 1557 1556 1555 1555 1555 1554 1554 1554 1553 1553 1552 1551 1551 1550 1548 1551 1552 1550 1548 1547 1544 1543 1540 1538 1536 1535 1533 1532 1532 1532 1532 1531 1531 1531 1530 1531 1530 1529 1528 1527 1525 1524 1522 1520 1520 1517 1515 1513 1510 1509 1507 1508 1509 1507 1506 1506 1503 1500 1502 1497 1484 1486 1492 1490 1491 1491 1492 1493 1493 1494 1494 1494 1494 1494
1571 1570 1569 1568 1567 1566 1565 1564 1563 1562 1561 1560 1558 1557 1556 1555 1555 1555 1555 1555 1554 1554 1554 1553 1552 1552 1551 1550 1550 1553 1552 1550 1549 1547 1545 1543 1541 1538 1536 1534 1533 1532 1531 1531 1531 1530 1530 1530 1530 1530 1529 1528 1527 1525 1523 1522 1522 1521 1520 1518 1514 1510 1507 1504 1504 1505 1506 1505 1504 1507 1503 1497 1495 1484 1478 1489 1492 1490 1491 1489 1491 1492 1492 1493 1492 1493 1492 1492
1571 1570 1569 1568 1568 1567 1566 1564 1563 1562 1561 1559 1558 1557 1556 1555 1555 1555 1555 1555 1555 1554 1554 1552 1552 1552 1551 1551 1553 1553 1552 1550 1548 1546 1544 1542 1540 1539 1536 1534 1532 1531 1530 1530 1530 1529 1529 1529 1529 1530 1529 1529 1527 1525 1522 1520 1521 1519 1518 1516 1514 1511 1504 1499 1500 1501 1502 1501 1502 1507 1501 1488 1483 1478 1480 1490 1490 1490 1490 1487 1489 1490 1490 1491 1491 1491 1491 1490
1571 1570 1569 1569 1568 1567 1566 1565 1563 1562 1561 1559 1558 1557 1556 1556 1555 1555 1555 1555 1555 1554 1553 1552 1551 1551 1551 1552 1553 1553 1552 1550 1548 1545 1543 1540 1538 1536 1535 1533 1531 1530 1529 1529 1529 1528 1528 1528 1528 1529 1529 1528 1526 1525 1522 1520 1519 1516 1514 1514 1514 1513 1503 1497 1498 1498 1497 1497 1499 1504 1497 1481 1477 1479 1482 1487 1487 1488 1487 1485 1487 1487 1487 1489 1489 1489 1489 1489
1571 1570 1569 1569 1568 1567 1566 1565 1564 1562 1561 1560 1558 1557 1557 1556 1556 1556 1555 1555 1555 1555 1553 1552 1551 1551 1551 1553 1553 1552 1550 1549 1547 1545 1542 1539 1536 1534 1533 1532 1531 1529 1528 1528 1527 1527 1527 1527 1528 1528 1527 1527 1526 1525 1521 1518 1515 1514 1515 1512 1508 1509 1503 1496 1496 1496 1495 1493 1494 1499 1492 1479 1477 1479 1481 1483 1484 1485 1484 1484 1484 1484 1485 1485 1486 1487 1487 1488
1571 1570 1569 1568 1568 1567 1566 1565 1564 1563 1561 1560 1558 1558 1558 1557 1557 1556 1556 1556 1555 1555 1554 1552 1551 1551 1552 1554 1554 1551 1549 1548 1546 1545 1542 1540 1537 1534 1532 1531 1530 1528 1527 1527 1526 1526 1526 1526 1527 1527 1526 1526 1525 1523 1520 1518 1513 1510 1512 1510 1507 1507 1504 1497 1493 1492 1492 1490 1490 1491 1485 1477 1476 1477 1479 1482 1482 1482 1483 1483 1482 1482 1482 1482 1483 1484 1485 1486
1570 1570 1569 1568 1567 1567 1566 1565 1564 1563 1561 1560 1559 1559 1559 1558 1557 1557 1556 1556 1555 1555 1554 1553 1552 1551 1552 1554 1554 1551 1550 1549 1547 1545 1542 1540 1537 1534 1532 1531 1529 1528 1526 1526 1526 1526 1526 1526 1526 1525 1525 1525 1523 1523 1523 1520 1511 1506 1506 1506 1505 1505 1505 1500 1494 1491 1491 1489 1487 1487 1482 1477 1475 1475 1477 1479 1480 1480 1480 1480 1481 1481 1480 1480 1481 1481 1482 1483
1570 1569 1569 1568 1567 1566 1566 1565 1564 1563 1561 1560 1559 1559 1559 1559 1558 1558 1557 1556 1556 1555 1554 1554 1552 1552 1554 1554 1554 1553 1551 1550 1547 1545 1542 1539 1537 1534 1532 1531 1529 1528 1527 1526 1526 1527 1527 1526 1525 1525 1524 1524 1523 1524 1524 1517 1508 1505 1505 1503 1502 1504 1506 1505 1500 1496 1495 1492 1487 1484 1481 1477 1476 1476 1476 1477 1478 1478 1477 1478 1479 1479 1478 1478 1478 1478 1478 1479
1570 1569 1568 1567 1567 1566 1565 1565 1564 1563 1561 1560 1560 1560 1559 1559 1559 1558 1558 1557 1556 1556 1558 1558 1556 1558 1560 1557 1556 1555 1552 1550 1548 1545 1542 1538 1536 1534 1533 1531 1529 1529 1528 1527 1527 1528 1528 1526 1525 1524 1522 1520 1521 1521 1520 1514 1509 1509 1507 1505 1505 1506 1506 1503 1501 1498 1497 1497 1490 1484 1481 1477 1476 1475 1474 1476 1476 1476 1476 1476 1477 1477 1477 1476 1476 1476 1476 1476
1569 1568 1567 1567 1566 1566 1565 1564 1564 1562 1561 1560 1560 1560 1559 1559 1559 1559 1559 1558 1558 1561 1563 1563 1561 1562 1562 1559 1556 1554 1552 1550 1548 1545 1542 1538 1536 1534 1532 1531 1530 1529 1529 1530 1529 1529 1529 1527 1525 1524 1521 1519 1519 1519 1518 1515 1513 1512 1509 1507 1506 1506 1502 1497 1498 1496 1496 1498 1491 1484 1481 1476 1475 1474 1473 1474 1475 1474 1474 1473 1474 1474 1475 1474 1474 1474 1473 1474
1568 1568 1567 1566 1566 1565 1565 1564 1563 1562 1561 1560 1560 1559 1560 1561 1561 1562 1562 1561 1562 1563 1563 1563 1563 1562 1561 1559 1556 1553 1552 1550 1548 1545 1542 1539 1536 1534 1533 1531 1530 1530 1531 1532 1530 1528 1529 1527 1525 1524 1523 1521 1520 1519 1518 1516 1515 1514 1511 1508 1504 1501 1498 1494 1494 1494 1494 1496 1490 1483 1481 1477 1474 1473 1473 1473 1473 1473 1472 1471 1471 1471 1472 1472 1472 1472 1471 1472
1568 1568 1567 1566 1566 1565 1565 1564 1563 1562 1562 1561 1560 1559 1560 1562 1562 1563 1563 1563 1564 1564 1564 1564 1563 1562 1561 1558 1556 1555 1553 1550 1547 1545 1542 1539 1536 1535 1534 1533 1533 1533 1532 1531 1530 1529 1527 1525 1523 1523 1522 1521 1520 1518 1518 1516 1515 1513 1510 1507 1500 1496 1495 1492 1491 1492 1493 1495 1488 1482 1482 1477 1473 1472 1472 1472 1471 1471 1471 1470 1470 1469 1469 1469 1470 1470 1470 1470
1568 1568 1566 1566 1565 1565 1565 1564 1563 1563 1562 1561 1560 1560 1561 1562 1563 1563 1563 1564 1564 1564 1564 1564 1563 1562 1560 1558 1557 1555 1554 1552 1549 1546 1543 1540 1538 1538 1537 1537 1537 1535 1533 1533 1534 1534 1530 1525 1523 1522 1522 1521 1518 1516 1517 1516 1512 1509 1507 1504 1499 1497 1500 1496 1491 1494 1494 1492 1489 1485 1483 1478 1472 1472 1471 1471 1470 1469 1470 1468 1469 1469 1467 1467 1468 1469 1469 1469
1569 1567 1566 1566 1565 1565 1565 1564 1564 1563 1562 1562 1561 1561 1562 1563 1563 1563 1564 1564 1565 1565 1564 1564 1563 1562 1561 1559 1558 1556 1555 1554 1553 1550 1547 1543 1541 1540 1540 1540 1539 1536 1535 1536 1536 1536 1532 1527 1524 1522 1521 1518 1516 1514 1516 1516 1509 1506 1505 1503 1500 1500 1503 1498 1494 1496 1494 1491 1489 1486 1485 1478 1472 1471 1469 1468 1468 1468 1468 1467 1466 1467 1467 1466 1467 1468 1469 1468
1569 1567 1567 1566 1565 1566 1565 1564 1564 1563 1563 1563 1562 1563 1563 1563 1563 1563 1564 1563 1563 1565 1564 1564 1564 1563 1562 1561 1558 1557 1556 1555 1556 1554 1550 1547 1544 1542 1542 1541 1540 1539 1538 1537 1537 1534 1530 1526 1525 1523 1518 1514 1514 1515 1515 1515 1510 1506 1506 1504 1503 1502 1501 1498 1496 1497 1495 1490 1485 1486 1487 1478 1469 1470 1470 1469 1469 1467 1467 1466 1466 1466 1466 1466 1466 1467 1468 1468
1569 1568 1567 1567 1566 1566 1565 1565 1564 1564 1564 1563 1563 1563 1563 1564 1563 1563 1564 1562 1561 1565 1566 1564 1565 1564 1563 1562 1559 1556 1556 1556 1557 1557 1553 1550 1548 1545 1544 1542 1542 1541 1540 1539 1537 1534 1530 1526 1525 1524 1519 1514 1513 1513 1512 1515 1511 1505 1505 1505 1504 1504 1502 1499 1499 1498 1492 1485 1483 1485 1485 1477 1470 1470 1470 1470 1469 1467 1467 1466 1466 1466 1467 1467 1468 1469 1469 1468
1570 1569 1568 1567 1567 1566 1566 1566 1565 1565 1564 1564 1564 1563 1563 1564 1562 1564 1562 1558 1561 1569 1569 1567 1568 1568 1566 1565 1561 1557 1560 1560 1557 1557 1555 1552 1549 1547 1546 1544 1544 1542 1542 1540 1533 1531 1531 1526 1524 1525 1522 1517 1516 1514 1511 1513 1512 1506 1505 1506 1505 1505 1503 1501 1500 1497 1489 1484 1485 1484 1482 1480 1477 1472 1471 1470 1469 1466 1465 1466 1469 1471 1471 1472 1472 1472 1471 1470
1570 1569 1569 1568 1568 1567 1566 1566 1565 1565 1564 1564 1564 1563 1564 1563 1562 1565 1558 1556 1568 1574 1572 1571 1570 1569 1569 1567 1564 1562 1566 1565 1560 1558 1557 1554 1550 1548 1547 1546 1546 1544 1542 1541 1533 1530 1532 1528 1525 1525 1522 1520 1520 1518 1514 1513 1510 1507 1507 1507 1507 1506 1503 1502 1501 1496 1492 1487 1484 1482 1482 1483 1479 1474 1472 1469 1468 1468 1468 1472 1477 1478 1477 1477 1476 1475 1474 1473
1570 1570 1569 1568 1568 1567 1567 1566 1566 1565 1565 1565 1564 1563 1564 1562 1563 1564 1555 1559 1575 1577 1574 1574 1571 1570 1570 1567 1566 1566 1567 1566 1564 1562 1558 1555 1552 1549 1548 1547 1546 1544 1541 1541 1538 1534 1532 1530 1529 1527 1524 1522 1521 1518 1515 1514 1512 1509 1510 1508 1506 1505 1503 1502 1499 1496 1495 1492 1487 1484 1483 1482 1481 1477 1472 1470 1475 1479 1480 1483 1485 1483 1482 1481 1479 1478 1476 1475
1570 1570 1569 1569 1568 1568 1567 1567 1566 1566 1565 1564 1564 1563 1563 1563 1562 1558 1555 1566 1580 1578 1576 1575 1574 1575 1572 1568 1567 1567 1567 1567 1566 1564 1559 1557 1554 1551 1549 1546 1545 1544 1540 1539 1538 1534 1532 1529 1529 1529 1527 1524 1521 1518 1515 1514 1513 1511 1509 1506 1503 1503 1503 1500 1497 1494 1492 1492 1491 1489 1484 1482 1482 1479 1478 1484 1490 1490 1487 1488 1489 1487 1486 1484 1482 1481 1479 1477
1570 1570 1569 1569 1569 1568 1568 1567 1566 1566 1565 1565 1565 1563 1563 1563 1560 1557 1565 1578 1582 1579 1579 1579 1578 1579 1577 1575 1573 1570 1570 1569 1567 1565 1562 1559 1557 1553 1549 1548 1547 1541 1537 1538 1537 1532 1529 1528 1528 1528 1528 1525 1519 1516 1515 1513 1513 1511 1508 1505 1502 1500 1499 1498 1496 1493 1489 1489 1490 1490 1485 1482 1484 1489 1494 1497 1497 1493 1491 1492 1492 1491 1489 1488 1486 1484 1482 1480
1571 1570 1570 1569 1569 1568 1568 1567 1567 1566 1565 1565 1563 1563 1563 1559 1561 1571 1580 1583 1581 1582 1585 1583 1582 1581 1580 1581 1579 1575 1574 1572 1569 1568 1566 1563 1560 1558 1557 1560 1558 1549 1545 1546 1544 1536 1528 1528 1530 1527 1526 1526 1520 1515 1513 1511 1510 1509 1507 1505 1501 1497 1495 1494 1494 1491 1487 1489 1491 1490 1487 1484 1491 1503 1505 1501 1498 1497 1496 1495 1495 1494 1492 1491 1490 1488 1487 1485
1571 1570 1570 1569 1568 1568 1568 1567 1567 1566 1565 1564 1563 1565 1561 1554 1567 1588 1592 1585 1585 1588 1589 1587 1585 1584 1583 1580 1580 1579 1576 1574 1572 1570 1569 1567 1564 1564 1566 1568 1567 1563 1560 1557 1554 1547 1535 1527 1529 1528 1526 1527 1525 1523 1522 1518 1514 1512 1511 1509 1504 1501 1500 1497 1494 1491 1488 1492 1493 1490 1489 1488 1496 1507 1506 1502 1502 1500 1498 1498 1498 1496 1495 1494 1494 1492 1490 1487
1571 1570 1570 1569 1569 1568 1568 1567 1567 1566 1565 1564 1563 1562 1559 1561 1579 1596 1594 1590 1592 1590 1589 1589 1587 1586 1585 1583 1583 1582 1578 1575 1575 1573 1570 1569 1568 1569 1569 1569 1569 1568 1565 1561 1559 1560 1552 1538 1533 1533 1532 1530 1530 1530 1531 1528 1522 1517 1514 1512 1509 1510 1513 1506 1499 1496 1495 1494 1493 1492 1494 1495 1500 1508 1508 1505 1505 1502 1501 1500 1499 1497 1496 1496 1494 1492 1490 1489
1571 1571 1570 1570 1569 1569 1568 1567 1567 1566 1565 1565 1563 1561 1563 1574 1591 1596 1593 1592 1593 1591 1591 1591 1589 1586 1586 1586 1586 1584 1582 1578 1576 1575 1573 1572 1572 1573 1572 1572 1573 1570 1566 1564 1561 1562 1561 1549 1538 1538 1537 1534 1533 1532 1531 1527 1521 1516 1512 1512 1513 1518 1521 1512 1504 1506 1503 1497 1494 1492 1496 1501 1504 1510 1511 1508 1506 1503 1501 1499 1497 1497 1496 1495 1494 1493 1493 1492
1572 1571 1571 1570 1570 1569 1568 1567 1567 1566 1566 1564 1563 1568 1577 1585 1591 1594 1592 1590 1591 1591 1590 1588 1589 1588 1587 1588 1587 1584 1583 1581 1578 1576 1574 1574 1576 1575 1575 1575 1576 1574 1572 1570 1567 1566 1565 1550 1538 1540 1537 1534 1535 1532 1530 1527 1522 1516 1513 1515 1519 1520 1521 1513 1505 1506 1501 1496 1497 1495 1498 1503 1506 1510 1511 1508 1505 1502 1500 1499 1498 1498 1497 1495 1494 1495 1495 1495
1572 1572 1571 1570 1570 1569 1568 1568 1567 1566 1566 1564 1566 1577 1590 1591 1590 1592 1591 1589 1590 1591 1589 1587 1590 1593 1594 1594 1589 1584 1582 1580 1580 1579 1576 1576 1576 1576 1577 1577 1577 1577 1576 1575 1570 1570 1572 1556 1540 1543 1540 1533 1534 1532 1528 1528 1526 1521 1520 1521 1520 1516 1516 1513 1508 1504 1496 1492 1496 1496 1497 1498 1500 1509 1513 1509 1507 1507 1505 1503 1502 1500 1499 1497 1497 1498 1498 1498
1572 1572 1571 1571 1570 1569 1569 1568 1567 1567 1565 1568 1576 1586 1593 1592 1590 1591 1590 1589 1590 1590 1589 1590 1592 1596 1598 1597 1590 1586 1584 1580 1580 1582 1580 1579 1577 1577 1579 1579 1578 1577 1577 1577 1572 1569 1573 1559 1542 1542 1543 1537 1534 1531 1527 1527 1525 1525 1525 1524 1521 1517 1515 1513 1514 1515 1509 1504 1501 1497 1493 1494 1501 1513 1518 1514 1513 1514 1511 1508 1506 1503 1502 1502 1502 1502 1501 1500
1573 1572 1572 1571 1570 1569 1569 1568 1568 1567 1565 1571 1583 1589 1590 1591 1591 1590 1590 1590 1590 1589 1590 1592 1593 1596 1597 1595 1591 1588 1587 1584 1583 1584 1582 1581 1579 1577 1580 1580 1578 1578 1576 1576 1573 1570 1571 1565 1548 1539 1541 1540 1536 1534 1535 1532 1526 1524 1525 1525 1524 1523 1522 1521 1521 1522 1519 1515 1512 1506 1499 1503 1514 1519 1518 1517 1517 1517 1515 1513 1511 1509 1508 1507 1506 1505 1503 1502
1573 1573 1573 1572 1571 1570 1570 1568 1568 1568 1570 1577 1586 1589 1590 1591 1590 1590 1591 1590 1590 1590 1590 1591 1593 1595 1596 1594 1592 1591 1589 1587 1586 1585 1583 1583 1581 1578 1580 1581 1578 1577 1576 1574 1574 1571 1570 1570 1559 1544 1540 1540 1539 1542 1544 1540 1534 1529 1528 1531 1532 1528 1527 1526 1524 1528 1527 1521 1521 1520 1512 1512 1520 1519 1517 1519 1519 1518 1517 1515 1514 1514 1512 1510 1509 1507 1506 1504
1573 1573 1574 1573 1572 1571 1570 1569 1571 1575 1579 1585 1588 1590 1591 1590 1590 1591 1591 1590 1591 1590 1590 1590 1591 1593 1594 1593 1592 1591 1590 1588 1586 1585 1582 1583 1582 1578 1580 1582 1580 1578 1576 1573 1573 1572 1570 1570 1566 1555 1546 1542 1542 1546 1547 1546 1543 1539 1538 1541 1540 1537 1535 1530 1526 1533 1538 1532 1529 1531 1522 1515 1519 1519 1517 1518 1518 1518 1519 1517 1515 1515 1513 1512 1511 1509 1508 1506
1573 1574 1575 1573 1572 1571 1570 1573 1579 1581 1583 1586 1588 1590 1590 1590 1590 1591 1590 1590 1591 1590 1591 1591 1591 1591 1592 1592 1591 1592 1591 1589 1586 1584 1582 1582 1582 1580 1580 1582 1581 1579 1578 1575 1573 1574 1573 1571 1567 1559 1550 1544 1544 1546 1548 1549 1548 1545 1544 1546 1545 1545 1544 1539 1533 1536 1542 1539 1535 1538 1532 1520 1517 1519 1517 1517 1518 1518 1518 1517 1516 1515 1514 1513 1511 1510 1509 1507
1574 1575 1575 1573 1572 1572 1572 1576 1583 1585 1585 1587 1589 1589 1590 1590 1590 1590 1590 1591 1590 1591 1591 1590 1591 1591 1591 1592 1592 1592 1592 1589 1585 1583 1583 1583 1582 1582 1582 1582 1581 1578 1577 1576 1575 1574 1573 1572 1568 1559 1548 1543 1544 1547 1549 1551 1549 1547 1546 1547 1549 1549 1548 1547 1545 1544 1546 1540 1533 1535 1530 1517 1513 1516 1515 1514 1515 1515 1516 1517 1517 1516 1515 1514 1512 1510 1509 1507
1576 1576 1575 1574 1573 1572 1573 1576 1581 1585 1588 1588 1588 1589 1590 1590 1590 1590 1591 1591 1590 1591 1591 1590 1591 1591 1591 1592 1592 1593 1593 1589 1585 1584 1584 1584 1583 1582 1582 1582 1581 1579 1579 1578 1577 1575 1573 1571 1569 1563 1552 1545 1544 1546 1549 1549 1548 1548 1548 1549 1549 1550 1551 1550 1549 1548 1546 1541 1538 1535 1522 1508 1508 1512 1510 1510 1512 1513 1515 1517 1516 1516 1515 1514 1513 1511 1509 1508
1576 1576 1576 1575 1574 1573 1575 1578 1580 1584 1588 1589 1589 1590 1590 1590 1591 1590 1590 1591 1591 1591 1591 1591 1591 1591 1592 1593 1593 1593 1594 1592 1588 1586 1586 1586 1584 1583 1583 1582 1581 1581 1580 1580 1578 1576 1574 1571 1570 1568 1563 1556 1550 1549 1551 1552 1551 1549 1548 1549 1549 1550 1552 1550 1550 1552 1548 1544 1543 1535 1517 1505 1507 1510 1509 1511 1513 1514 1516 1517 1516 1516 1514 1513 1512 1510 1509 1507
1576 1576 1577 1577 1576 1575 1578 1581 1581 1583 1587 1588 1588 1590 1591 1590 1590 1590 1590 1591 1591 1591 1591 1591 1591 1592 1592 1593 1593 1594 1595 1595 1594 1592 1590 1587 1584 1583 1583 1582 1582 1582 1581 1580 1578 1576 1575 1573 1570 1570 1567 1561 1554 1552 1554 1556 1556 1552 1549 1548 1548 1550 1551 1551 1553 1553 1547 1544 1541 1530 1520 1516 1513 1511 1512 1514 1515 1516 1516 1516 1515 1514 1513 1512 1511 1509 1508 1506
1577 1578 1579 1579 1578 1578 1580 1582 1583 1584 1585 1585 1585 1588 1590 1589 1590 1590 1590 1591 1591 1591 1591 1591 1592 1592 1591 1592 1593 1594 1596 1597 1596 1594 1591 1587 1585 1584 1582 1582 1582 1582 1581 1580 1578 1578 1578 1574 1571 1571 1568 1562 1558 1557 1557 1557 1557 1554 1551 1549 1547 1548 1550 1552 1554 1548 1544 1546 1537 1523 1522 1523 1516 1513 1516 1517 1517 1518 1517 1516 1516 1514 1513 1511 1510 1508 1507 1505
1578 1580 1581 1580 1580 1580 1581 1583 1584 1585 1586 1586 1587 1589 1589 1589 1589 1589 1589 1590 1590 1590 1591 1591 1591 1590 1590 1591 1591 1592 1595 1593 1591 1591 1589 1586 1586 1584 1581 1581 1582 1581 1581 1581 1580 1580 1581 1577 1574 1574 1570 1564 1562 1560 1558 1557 1555 1552 1551 1549 1547 1547 1548 1550 1549 1545 1545 1546 1534 1521 1523 1524 1517 1515 1517 1518 1519 1519 1518 1518 1517 1515 1513 1511 1509 1508 1506 1505
1578 1580 1581 1581 1581 1582 1582 1583 1584 1585 1586 1587 1588 1589 1589 1588 1587 1587 1588 1589 1590 1590 1590 1590 1590 1590 1590 1591 1591 1591 1592 1589 1587 1589 1588 1587 1587 1585 1582 1581 1581 1581 1581 1581 1581 1583 1581 1576 1576 1578 1574 1566 1562 1560 1558 1558 1555 1551 1548 1545 1545 1545 1545 1545 1543 1541 1541 1540 1532 1527 1527 1522 1516 1515 1517 1518 1520 1520 1519 1518 1517 1515 1513 1511 1509 1508 1506 1505
1578 1579 1580 1581 1581 1583 1583 1584 1584 1585 1586 1587 1588 1588 1589 1588 1586 1586 1587 1587 1587 1589 1589 1588 1588 1589 1590 1591 1590 1590 1589 1587 1586 1587 1587 1587 1586 1585 1583 1581 1580 1581 1581 1580 1582 1584 1581 1576 1578 1581 1576 1566 1561 1559 1558 1556 1553 1549 1545 1541 1542 1542 1541 1541 1539 1537 1538 1536 1531 1530 1528 1520 1515 1516 1517 1519 1519 1519 1519 1518 1516 1515 1513 1510 1509 1507 1505 1504
1578 1578 1579 1580 1582 1583 1584 1584 1584 1584 1585 1586 1585 1586 1587 1586 1585 1585 1586 1585 1585 1585 1586 1586 1586 1588 1590 1590 1589 1587 1585 1585 1585 1583 1584 1585 1584 1583 1582 1581 1580 1580 1580 1581 1582 1582 1582 1579 1578 1581 1575 1563 1560 1560 1556 1554 1554 1550 1543 1537 1536 1538 1536 1534 1533 1531 1532 1532 1529 1528 1526 1517 1513 1516 1518 1518 1518 1518 1518 1517 1516 1514 1512 1510 1508 1506 1505 1503
1578 1578 1578 1579 1581 1583 1583 1583 1584 1583 1580 1580 1580 1582 1583 1583 1584 1585 1584 1584 1584 1583 1584 1585 1585 1587 1588 1588 1587 1584 1583 1584 1583 1582 1581 1581 1580 1580 1580 1579 1579 1580 1580 1581 1580 1581 1583 1580 1578 1581 1574 1562 1560 1561 1558 1557 1550 1538 1532 1529 1528 1531 1532 1529 1527 1526 1526 1527 1525 1523 1519 1515 1515 1517 1517 1517 1517 1517 1516 1516 1515 1513 1510 1509 1507 1506 1504 1502